Change the Weather History Date:

Sunday, November 3, 2013

  Actual Average Record
Temperature  
Mean Temperature 70 °F 70 °F  
Max Temperature 83 °F 83 °F 97 °F (1962)
Min Temperature 56 °F 57 °F 31 °F (1936)
Degree Days  
Heating Degree Days 0 1  
Month to date heating degree days 0 3  
Since 1 July heating degree days 10 7  
Cooling Degree Days 5 5  
Month to date cooling degree days 14 17  
Year to date cooling degree days 4451 4079  
Growing Degree Days 20 (Base 50)    
Moisture  
Dew Point 34 °F    
Average Humidity 27    
Maximum Humidity 42    
Minimum Humidity 11    
Precipitation  
Precipitation 0.00 in 0.01 in 0.16 in (1910)
Month to date precipitation 0.00 0.04  
Year to date precipitation 2.12 4.37  
Since 1 July precipitation 1.15 1.43  
Snow  
Snow 0.00 in - - ()
Month to date snowfall 0.0  
Year to date snowfall 0.0  
Since 1 July snowfall 0.0  
Snow Depth 0.00 in    
Sea Level Pressure  
Sea Level Pressure 29.78 in    
Wind  
Wind Speed 4 mph (NW)    
Max Wind Speed 13 mph    
Max Gust Speed 17 mph    
Visibility 10 miles    
Events      
T = Trace of Precipitation, MM = Missing Value Source: NWS Daily Summary

Daily Weather History Graph

Daily Weather History Graph

Search for Another Location

Airport or City:

Trip Planner

Search our weather history database for the weather conditions in past years. The results will help you decide how hot, cold, wet, or windy it might be!

Date:

Astronomy

Nov. 03, 2013 Rise Set
Actual Time 6:07 AM PST 4:51 PM PST
Civil Twilight 5:41 AM PST 5:17 PM PST
Nautical Twilight 5:11 AM PST 5:46 PM PST
Astronomical Twilight 4:42 AM PST 6:16 PM PST
Moon 6:15 AM PST 5:11 PM PST
Length of Visible Light 11h 35m
Length of Day
10h 44m
New Moon, 0% of the Moon is Illuminated
Nov 3
New Moon
Nov 9
First Quarter
Nov 17
Full
Nov 25
Last Quarter
Dec 2
New

Hourly Weather History & Observations

Time (PST) Temp. Dew Point Humidity Pressure Visibility Wind Dir Wind Speed Gust Speed Precip Events Conditions
12:53 AM 64.0 °F 33.1 °F 31% 29.83 in 10.0 mi West 3.5 mph - N/A   Clear
1:53 AM 60.1 °F 37.9 °F 44% 29.82 in 10.0 mi NNW 4.6 mph - N/A   Clear
1:53 AM 59.0 °F 34.0 °F 39% 29.80 in 10.0 mi Calm Calm - N/A   Clear
2:53 AM 62.1 °F 32.0 °F 32% 29.79 in 10.0 mi West 4.6 mph - N/A   Clear
3:53 AM 61.0 °F 32.0 °F 34% 29.79 in 10.0 mi Variable 3.5 mph - N/A   Clear
4:53 AM 61.0 °F 32.0 °F 34% 29.78 in 10.0 mi West 5.8 mph - N/A   Clear
5:53 AM 57.0 °F 34.0 °F 42% 29.80 in 10.0 mi SSW 3.5 mph - N/A   Clear
6:53 AM 60.1 °F 32.0 °F 35% 29.82 in 10.0 mi North 4.6 mph - N/A   Clear
7:53 AM 64.9 °F 34.0 °F 32% 29.83 in 10.0 mi Calm Calm - N/A   Clear
8:53 AM 73.0 °F 30.0 °F 20% 29.83 in 10.0 mi NE 3.5 mph - N/A   Clear
9:53 AM 75.0 °F 30.0 °F 19% 29.83 in 10.0 mi Calm Calm - N/A   Clear
10:53 AM 77.0 °F 27.0 °F 16% 29.81 in 10.0 mi South 5.8 mph - N/A   Clear
11:53 AM 80.1 °F 27.0 °F 14% 29.79 in 10.0 mi ENE 5.8 mph - N/A   Clear
12:53 PM 81.0 °F 26.1 °F 13% 29.76 in 10.0 mi Variable 3.5 mph - N/A   Clear
1:53 PM 81.0 °F 24.1 °F 12% 29.75 in 10.0 mi NW 3.5 mph - N/A   Clear
2:53 PM 82.9 °F 23.0 °F 11% 29.73 in 10.0 mi NE 4.6 mph - N/A   Clear
3:53 PM 80.1 °F 33.1 °F 18% 29.72 in 10.0 mi WNW 6.9 mph - N/A   Clear
4:53 PM 77.0 °F 37.0 °F 24% 29.71 in 10.0 mi NW 9.2 mph - N/A   Clear
5:53 PM 75.0 °F 39.0 °F 27% 29.73 in 10.0 mi NW 10.4 mph - N/A   Clear
6:53 PM 73.0 °F 41.0 °F 31% 29.74 in 10.0 mi NW 15.0 mph 19.6 mph N/A   Clear
7:53 PM 71.1 °F 44.1 °F 38% 29.74 in 10.0 mi WNW 8.1 mph - N/A   Clear
8:53 PM 69.1 °F 42.1 °F 38% 29.75 in 10.0 mi West 5.8 mph - N/A   Clear
9:53 PM 68.0 °F 45.0 °F 43% 29.75 in 10.0 mi NW 10.4 mph - N/A   Clear
10:53 PM 64.9 °F 44.1 °F 47% 29.74 in 10.0 mi Calm Calm - N/A   Clear